Location: Clarks Summit,Pa.
(41.5000°N, 75.6000°W)
Time: 14:59:19
(UTC-05:00)

BlueWalker 3 - Pass Details

Date: 09 December 2022
Orbit: 499 x 517 km, 53.2° (Epoch: 29 January)

Event Time Altitude Azimuth Distance (km) Brightness Sun altitude
Rises 18:26:29 0° 308° (NW) 2,626 6.2 -20.6°
Reaches altitude 10° 18:28:42 10° 308° (NW) 1,733 5.2 -21.0°
Maximum altitude 18:32:37 90° 27° (NNE) 512 1.8 -21.8°
Enters shadow 18:32:45 84° 124° (SE) 515 1.8 -21.8°
